St. Joseph, KS

9:01 PM CST on November 14, 2019 (GMT -0600)
Rosecrans Memorial

Weather History for KSTJ - September, 2019

Change the Weather History Date:

Thursday, September 19, 2019

  Actual Average Record
Temperature  
Mean Temperature 79 °F 65 °F  
Max Temperature 90 °F 78 °F 96 °F (1931)
Min Temperature 68 °F 53 °F 31 °F (1991)
Degree Days  
Heating Degree Days 0 3  
Month to date heating degree days 0 26  
Since 1 July heating degree days 0 31  
Cooling Degree Days 14 3  
Month to date cooling degree days 225 94  
Year to date cooling degree days 1369 1171  
Growing Degree Days 28 (Base 50)    
Moisture  
Dew Point 69 °F    
Average Humidity 75    
Maximum Humidity 93    
Minimum Humidity 56    
Precipitation  
Precipitation T in 0.11 in 1.19 in (2013)
Month to date precipitation 1.47 2.39  
Year to date precipitation 30.74 28.69  
Sea Level Pressure  
Sea Level Pressure 29.96 in    
Wind  
Wind Speed 5 mph (ESE)    
Max Wind Speed 15 mph    
Max Gust Speed 19 mph    
Visibility 9 miles    
Events Rain    
T = Trace of Precipitation, MM = Missing Value Source: NWS Daily Summary

Daily Weather History Graph

Daily Weather History Graph

Search for Another Location

Airport or City:

Astronomy

Sep. 19, 2019 Rise Set
Actual Time 7:04 AM CDT 7:21 PM CDT
Civil Twilight 6:37 AM CDT 7:48 PM CDT
Nautical Twilight 6:05 AM CDT 8:20 PM CDT
Astronomical Twilight 5:33 AM CDT 8:52 PM CDT
Moon 10:32 PM CDT (9/19) 12:07 PM CDT (9/19)
Length of Visible Light 13h 11m
Length of Day
12h 17m
Waning Gibbous, 74% of the Moon is Illuminated
Sep 19
Waning Gibbous
Sep 21
Last Quarter
Sep 28
New
Oct 5
First Quarter
Oct 13
Full

Hourly Weather History & Observations

Time (CDT) Temp. Heat Index Dew Point Humidity Pressure Visibility Wind Dir Wind Speed Gust Speed Precip Events Conditions
12:53 AM 73.0 °F - 68.0 °F 84% 29.94 in 10.0 mi SSW 5.8 mph - N/A   Clear
1:53 AM 71.1 °F - 66.9 °F 87% 29.94 in 10.0 mi Calm Calm - N/A   Clear
2:53 AM 69.1 °F - 66.0 °F 90% 29.94 in 9.0 mi Calm Calm - N/A   Clear
3:53 AM 69.1 °F - 66.0 °F 90% 29.93 in 8.0 mi Calm Calm - N/A   Clear
4:53 AM 68.0 °F - 66.0 °F 93% 29.93 in 9.0 mi Calm Calm - N/A   Clear
5:53 AM 68.0 °F - 66.9 °F 96% 29.94 in 8.0 mi Calm Calm - N/A   Clear
6:53 AM 68.0 °F - 66.0 °F 93% 29.96 in 4.0 mi Calm Calm - N/A   Clear
7:53 AM 71.1 °F - 69.1 °F 93% 29.98 in 4.0 mi Calm Calm - N/A   Clear
8:53 AM 75.0 °F - 71.1 °F 87% 29.99 in 7.0 mi Calm Calm - N/A   Partly Cloudy
9:53 AM 77.0 °F - 70.0 °F 79% 30.01 in 7.0 mi North 10.4 mph - N/A   Scattered Clouds
10:53 AM 82.9 °F 87.5 °F 71.1 °F 67% 30.01 in 8.0 mi ENE 8.1 mph - N/A   Scattered Clouds
11:53 AM 84.9 °F 90.1 °F 71.1 °F 63% 30.01 in 10.0 mi ENE 8.1 mph - N/A   Clear
12:53 PM 84.9 °F 89.4 °F 70.0 °F 61% 29.99 in 10.0 mi East 9.2 mph - 0.00 in Rain Light Rain
1:53 PM 87.1 °F 92.0 °F 70.0 °F 57% 29.98 in 10.0 mi East 11.5 mph 17.3 mph 0.00 in   Clear
2:53 PM 88.0 °F 93.8 °F 71.1 °F 57% 29.96 in 10.0 mi East 12.7 mph - N/A   Clear
3:53 PM 87.1 °F 92.8 °F 71.1 °F 59% 29.94 in 10.0 mi SE 6.9 mph - N/A   Clear
4:53 PM 89.1 °F 96.0 °F 72.0 °F 57% 29.92 in 10.0 mi SE 9.2 mph - N/A   Clear
6:53 PM 82.9 °F 87.0 °F 70.0 °F 65% 29.91 in 10.0 mi SE 8.1 mph - N/A   Clear
7:53 PM 81.0 °F 84.4 °F 70.0 °F 69% 29.92 in 10.0 mi North - - N/A   Unknown
8:53 PM 79.0 °F - 71.1 °F 77% 29.94 in 10.0 mi ESE 4.6 mph - N/A   Clear
9:53 PM 77.0 °F - 71.1 °F 82% 29.95 in 10.0 mi SE 4.6 mph - N/A   Clear
10:53 PM 73.9 °F - 70.0 °F 87% 29.96 in 9.0 mi Calm Calm - N/A   Clear
11:53 PM 72.0 °F - 69.1 °F 91% 29.97 in 7.0 mi Calm Calm - N/A   Clear